Wetbulb
55.30 55.06 54.91 54.70 54.62 54.32 54.02 54.00 54.31 54.21 53.71 53.47 53.72 53.99 54.24 54.86 54.33 53.32 52.76 53.88 54.08 54.49 54.98 55.28 54.44 54.88 55.73 55.89 56.09 56.12 55.98 55.88 55.93 56.24 56.35 56.06 55.78 55.77 55.90 56.19 56.34 56.31 56.04 55.63 55.29 54.97 54.53 54.19 53.96 53.81 53.62 53.48 53.07 52.90 52.77 52.76 52.54 52.25 52.06 51.79 51.53 51.27 50.86 50.27 49.88 49.52 49.21 49.04 49.01
55.29 55.17 55.20 55.36 55.09 54.57 54.05 53.83 54.11 54.09 53.85 53.64 53.91 53.77 53.89 54.86 53.90 53.06 52.45 52.37 53.37 54.14 54.68 54.80 53.90 54.66 55.73 55.93 56.31 56.16 55.85 55.61 55.66 56.06 56.18 55.89 55.79 55.83 56.01 56.24 56.13 55.83 55.33 54.65 54.48 54.39 54.04 53.74 53.58 53.39 53.20 53.17 52.86 52.55 52.45 52.58 52.35 52.05 51.57 51.26 51.12 50.93 50.61 50.13 49.73 49.38 49.08 48.82 48.74
55.49 55.33 55.24 55.09 54.49 54.02 53.65 53.38 53.44 53.46 53.51 53.60 53.87 54.12 54.37 54.81 54.11 53.27 52.45 51.83 52.97 53.64 54.22 54.61 54.74 55.19 55.78 56.03 56.28 56.09 55.63 55.11 55.39 55.70 55.96 55.80 55.88 55.92 56.06 56.12 55.68 55.28 54.81 54.35 54.15 54.02 53.80 53.57 53.49 53.40 53.13 52.89 52.49 52.27 52.08 52.22 52.15 51.72 51.30 50.95 50.93 50.73 50.42 49.98 49.72 49.42 49.16 48.77 48.56
55.63 55.36 55.05 54.68 54.06 53.74 53.59 53.55 53.30 53.19 53.33 53.71 54.18 54.60 54.87 55.09 54.45 53.32 52.09 51.30 53.37 54.40 54.71 54.21 54.95 55.44 55.92 56.21 56.16 55.79 55.24 54.98 55.07 55.43 55.83 55.94 55.98 55.98 55.94 55.60 55.22 54.92 54.54 54.30 54.01 53.84 53.66 53.46 53.42 53.27 52.97 52.48 52.21 51.98 51.84 51.86 51.80 51.58 51.28 51.06 51.01 50.60 50.25 49.98 49.84 49.59 49.24 48.73 48.42
55.56 55.29 54.93 54.51 54.07 53.87 53.76 53.56 53.21 53.19 53.36 53.97 54.45 54.88 55.16 55.29 54.68 53.14 52.14 53.01 54.36 54.98 55.06 54.60 55.12 55.66 56.09 56.39 55.88 55.34 54.80 54.80 55.46 55.73 55.82 55.91 55.91 55.90 55.63 55.11 54.81 54.68 54.42 54.16 53.93 53.67 53.48 53.37 53.44 53.18 52.76 52.25 52.23 52.00 51.70 51.36 51.25 51.15 51.14 51.17 50.83 50.43 50.08 49.90 49.82 49.69 49.34 48.82 48.33
55.13 54.95 54.63 54.37 53.94 53.71 53.59 53.26 53.14 53.31 53.72 54.35 54.55 54.93 55.12 55.25 54.66 53.42 52.86 54.40 54.72 54.99 55.29 55.84 55.89 55.99 56.19 56.07 55.65 55.02 54.53 54.53 55.45 55.76 55.73 55.83 55.91 55.72 55.35 54.95 54.69 54.56 54.45 54.08 53.84 53.62 53.56 53.45 53.48 53.13 52.75 52.44 52.18 51.76 51.24 50.81 50.70 50.69 50.55 50.46 50.15 49.92 49.74 49.57 49.66 49.48 49.12 48.50 47.84
54.41 54.20 54.07 53.91 53.76 53.59 53.34 52.99 53.40 53.62 53.96 54.36 54.51 54.70 54.94 55.08 54.41 53.20 52.81 54.63 54.90 55.21 55.61 56.09 55.83 55.79 55.80 55.71 55.38 54.83 54.47 54.52 55.18 55.46 55.61 55.79 55.72 55.56 55.26 54.89 54.77 54.58 54.37 54.17 53.97 53.88 53.73 53.53 53.27 53.13 52.91 52.73 52.23 51.56 50.96 50.68 50.41 50.09 49.74 49.42 49.11 49.23 49.26 49.05 49.30 49.04 48.46 47.53 46.95
53.51 53.60 53.78 53.68 53.67 53.47 53.15 52.91 53.33 53.65 54.00 54.33 54.38 54.57 54.71 54.84 54.22 53.33 53.17 54.63 55.08 55.43 55.70 55.89 55.35 55.26 55.35 55.48 55.10 54.63 54.35 54.41 54.95 55.23 55.43 55.61 55.59 55.42 55.24 54.99 54.72 54.55 54.43 54.28 54.13 54.02 53.96 53.71 53.17 52.77 52.50 52.45 52.03 51.35 50.51 49.88 49.61 49.11 48.58 47.81 48.21 48.34 48.52 48.82 48.64 48.29 47.67 46.78 46.42
53.02 53.38 53.74 53.64 53.59 53.40 53.07 52.92 53.27 53.68 53.96 54.23 54.33 54.48 54.61 54.61 54.04 53.46 53.44 54.67 55.30 55.66 55.70 55.40 55.03 54.99 55.07 55.20 54.90 54.57 54.32 54.37 54.83 55.08 55.20 55.26 55.38 55.43 55.30 55.00 54.69 54.52 54.50 54.39 54.23 54.15 53.86 53.61 52.99 52.41 52.01 51.87 51.70 50.99 50.06 49.07 48.48 47.76 47.18 46.77 46.82 46.68 46.73 47.31 47.22 47.13 46.91 46.47 46.07
53.24 53.45 53.53 53.56 53.47 53.42 53.39 53.15 53.37 53.59 53.87 54.10 54.24 54.61 54.84 55.09 54.39 53.72 53.61 54.30 55.52 55.84 55.57 55.13 54.84 54.79 54.79 54.88 54.76 54.63 54.50 54.54 54.85 54.95 55.02 55.16 55.38 55.44 55.37 55.11 54.76 54.59 54.43 54.45 54.33 53.93 53.57 53.29 52.49 51.73 51.10 51.06 50.70 50.15 49.39 48.57 47.63 46.86 46.64 47.40 46.29 45.21 44.85 45.83 45.70 45.98 46.33 46.33 45.85
53.51 53.46 53.41 53.32 53.24 53.45 53.54 53.33 53.51 53.69 53.83 53.98 54.35 54.71 55.06 55.18 54.39 53.93 53.95 54.61 55.49 55.49 55.17 54.89 54.69 54.59 54.55 54.69 54.66 54.57 54.48 54.70 54.76 54.81 54.84 54.93 55.29 55.46 55.53 55.42 54.97 54.62 54.32 54.33 54.12 53.80 53.30 52.86 51.55 50.52 49.97 49.84 49.57 49.20 48.75 47.90 47.18 46.51 46.10 46.42 45.53 45.13 45.00 44.95 45.49 45.76 45.89 45.85 45.63
53.47 53.42 53.37 53.24 52.89 52.85 52.94 53.03 53.30 53.53 53.75 54.08 54.48 54.80 54.93 54.83 54.39 54.05 54.20 54.83 55.22 55.18 54.94 54.66 54.44 54.29 54.38 54.66 54.68 54.63 54.60 54.51 54.49 54.47 54.52 54.48 54.71 55.16 55.46 55.58 55.08 54.55 54.11 53.98 53.54 53.13 52.63 51.69 50.83 49.88 49.12 48.67 49.79 49.69 48.70 47.36 46.87 46.20 45.57 45.17 45.14 45.05 45.10 45.01 45.05 45.32 45.50 45.20 45.37
53.33 53.28 53.19 53.02 52.63 52.45 52.27 52.55 52.87 53.27 53.67 54.17 54.66 54.89 54.98 54.84 54.57 54.33 54.20 54.30 55.00 55.08 54.80 54.46 54.41 54.30 54.25 54.40 54.65 54.57 54.48 54.27 54.19 54.33 54.46 54.29 54.39 54.75 55.25 55.64 55.14 54.51 53.75 53.26 52.36 52.08 51.72 50.73 50.01 49.47 49.07 48.75 49.64 49.32 48.28 47.22 46.73 46.16 45.54 45.05 44.97 44.93 44.79 44.52 44.43 44.48 44.53 44.40 44.85
53.20 53.02 52.84 52.80 52.53 52.40 52.27 52.14 52.46 52.91 53.50 54.18 54.62 54.89 54.89 54.70 54.58 54.39 54.09 53.67 54.72 54.95 54.70 54.32 54.40 54.40 54.25 54.10 54.36 54.20 53.96 53.89 53.96 54.19 54.27 54.17 54.06 54.44 55.03 55.61 55.19 54.29 53.08 51.86 51.09 50.72 50.53 50.12 49.54 49.19 48.92 48.57 48.70 48.38 47.79 47.25 46.77 46.24 45.72 45.19 44.89 44.58 44.35 43.90 43.72 43.68 43.77 43.73 43.86
52.84 52.75 52.61 52.48 52.31 52.18 52.05 51.64 52.10 52.46 53.10 53.77 54.40 54.62 54.62 54.58 54.64 54.46 54.06 53.54 54.40 54.81 54.70 54.19 54.23 54.27 54.24 53.98 53.97 53.86 53.75 53.55 53.68 53.81 53.94 53.71 53.56 54.12 54.94 55.43 55.01 53.84 52.13 50.28 50.00 49.72 49.53 49.03 48.80 48.67 48.54 48.28 47.97 47.66 47.34 47.07 46.67 46.32 45.85 45.46 44.89 44.40 43.91 43.28 43.14 43.28 43.42 43.28 42.92
52.62 52.44 52.35 52.17 51.90 51.77 51.64 51.37 51.88 52.24 52.74 53.42 53.95 54.22 54.36 54.45 54.48 54.38 54.11 53.81 54.49 54.81 54.66 54.14 53.93 53.95 54.01 54.13 53.98 53.86 53.55 53.12 53.22 53.32 53.23 52.95 53.02 53.85 54.80 55.29 54.69 53.11 51.09 49.33 49.08 48.89 48.57 48.25 48.28 48.19 48.07 47.90 47.55 47.33 47.15 46.89 46.50 46.02 45.59 45.15 44.67 44.19 43.66 43.29 43.07 43.07 43.07 43.20 42.79
52.43 52.17 52.04 51.82 51.64 51.50 51.37 51.19 51.65 52.06 52.56 53.10 53.55 53.87 54.00 54.22 54.31 54.44 54.43 54.35 54.72 54.68 54.30 53.74 53.50 53.63 53.85 54.02 54.04 53.72 53.19 52.70 52.59 52.56 52.24 51.88 52.43 53.57 54.66 55.01 54.29 52.34 50.22 48.81 48.53 48.20 47.76 47.41 47.52 47.65 47.66 47.62 47.49 47.27 47.01 46.66 46.32 45.76 45.11 44.63 44.24 43.80 43.57 43.84 43.31 42.95 42.85 43.20 42.97
52.30 52.12 51.81 51.55 51.50 51.41 51.28 51.15 51.51 51.97 52.42 53.05 53.37 53.64 53.87 54.04 54.08 54.26 54.48 54.62 54.62 54.35 53.85 53.25 53.11 53.29 53.65 53.61 53.71 53.59 53.12 52.25 51.91 51.61 51.38 51.11 52.15 53.42 54.37 54.60 53.46 51.51 49.56 48.56 48.15 47.69 47.26 46.83 46.79 47.05 47.30 47.39 47.26 47.22 46.96 46.62 46.14 45.41 44.76 44.24 43.71 43.36 43.27 43.35 42.86 42.96 43.18 43.29 43.20
52.12 51.94 51.67 51.42 51.28 51.33 51.42 51.37 51.69 52.01 52.46 53.18 53.37 53.55 53.55 53.59 53.76 54.04 54.36 54.49 54.57 54.25 53.70 53.16 53.12 53.34 53.61 53.61 53.53 53.49 53.02 51.84 51.23 50.83 50.55 50.68 51.98 53.16 53.90 53.81 52.25 50.49 48.95 48.40 47.81 47.28 46.89 46.51 46.52 46.74 46.92 47.05 46.79 46.67 46.45 46.19 45.80 45.15 44.50 43.94 43.32 42.97 42.70 42.51 42.41 42.77 43.22 43.30 42.99
52.03 51.80 51.54 51.19 51.15 51.19 51.33 51.55 51.87 52.14 52.55 53.14 53.19 53.19 53.19 53.23 53.45 53.77 54.13 54.27 54.48 54.15 53.74 53.16 52.99 53.12 53.39 53.64 53.34 52.95 52.48 51.63 50.79 50.21 49.89 50.18 51.52 52.66 53.09 52.60 50.91 49.56 48.58 48.07 47.36 46.79 46.41 46.24 46.34 46.52 46.61 46.62 46.32 45.98 45.68 45.54 45.20 44.59 44.02 43.86 43.15 42.66 42.34 42.25 42.27 42.45 42.80 42.86 42.37
51.89 51.75 51.53 51.10 50.92 50.97 51.15 51.42 51.87 52.28 52.60 52.92 53.10 53.10 52.96 53.00 53.28 53.59 53.95 54.31 54.30 54.06 53.57 52.81 52.90 53.08 53.34 53.59 53.06 52.45 51.85 51.50 50.44 49.73 49.41 49.62 50.86 51.81 52.14 51.41 50.03 49.18 48.51 47.83 47.03 46.39 46.06 46.14 46.24 46.38 46.52 46.49 46.11 45.80 45.54 45.50 44.89 44.19 43.58 43.60 42.85 42.26 41.93 42.06 42.31 42.53 42.58 42.50 42.02
51.93 51.75 51.61 51.22 50.83 50.74 50.93 51.33 51.78 52.14 52.42 52.74 52.96 53.14 53.13 53.05 53.09 53.46 53.91 54.31 54.25 53.89 53.30 52.63 53.03 53.30 53.48 53.50 52.74 52.09 51.57 51.14 49.86 49.14 48.99 49.19 50.11 50.82 51.01 50.43 49.56 48.86 48.16 47.24 46.52 46.01 45.75 45.84 46.03 46.21 46.39 46.39 45.97 45.80 45.80 45.67 44.89 44.02 43.22 42.65 42.03 41.66 41.56 41.83 42.40 42.58 42.45 42.18 41.74
52.06 51.88 51.70 51.39 50.96 50.97 51.06 51.24 51.47 51.78 52.15 52.56 52.91 53.13 53.12 52.95 52.91 53.32 53.82 54.17 54.16 53.84 53.30 52.81 53.09 53.35 53.52 53.36 52.50 51.93 51.37 50.84 49.48 48.67 48.51 48.73 49.41 49.76 49.78 49.45 49.28 48.72 48.02 47.30 46.27 45.58 45.41 45.46 45.56 45.82 46.08 46.25 45.67 45.63 45.71 45.58 45.11 44.25 43.19 42.07 41.57 41.34 41.42 41.82 42.17 42.30 42.13 41.86 41.41
51.97 51.83 51.64 51.45 50.95 50.47 50.34 50.70 51.06 51.47 51.92 52.47 52.82 52.99 52.98 52.77 52.69 53.15 53.68 54.08 53.93 53.70 53.43 53.39 53.31 53.36 53.25 53.08 52.47 52.03 51.59 50.82 49.40 48.42 47.87 47.96 48.50 48.71 48.81 48.83 48.97 48.64 47.94 47.07 46.81 46.70 46.48 46.32 45.87 45.85 45.98 46.07 45.79 45.71 45.58 45.37 45.02 44.29 43.34 42.31 41.86 41.57 41.51 41.68 41.86 42.08 41.94 41.32 41.05
51.94 51.80 51.61 51.33 50.77 50.15 49.80 50.07 50.61 51.15 51.70 52.24 52.73 52.85 52.76 52.50 52.46 52.92 53.41 53.77 53.71 53.57 53.43 53.48 53.40 53.17 52.98 52.60 52.12 51.86 51.55 50.91 49.63 48.38 47.49 47.03 47.31 47.60 47.91 48.22 48.54 48.42 48.28 48.65 50.41 50.82 50.33 49.22 47.94 47.00 46.36 46.05 45.61 45.32 45.02 44.68 44.42 44.04 43.65 43.05 42.60 42.23 41.85 41.46 41.46 41.50 41.36 41.05 41.11
51.85 51.67 51.44 51.08 50.59 49.97 49.39 49.39 50.11 50.79 51.42 51.92 52.42 52.54 52.45 52.32 52.24 52.51 52.91 53.50 53.45 53.30 53.17 53.31 53.30 53.29 52.97 52.24 51.93 51.76 51.52 51.04 49.81 48.43 47.28 46.44 46.38 46.62 47.09 47.65 47.96 47.89 48.60 51.05 52.72 53.13 52.72 52.12 50.81 48.96 46.95 45.49 45.30 45.06 44.60 43.90 43.68 43.52 43.39 43.18 43.31 43.13 42.72 42.30 41.60 41.28 41.10 41.09 41.15
51.67 51.54 51.40 51.08 50.63 49.97 49.30 48.80 49.48 50.34 51.06 51.65 52.01 52.28 52.27 52.18 52.10 52.19 52.51 53.05 53.09 52.95 52.95 53.08 53.34 53.54 53.35 52.45 51.98 51.78 51.54 51.09 49.85 48.35 46.93 45.83 45.65 45.77 46.16 46.54 46.89 47.44 49.15 52.74 54.03 54.18 53.80 53.50 52.73 50.88 48.33 45.31 45.20 45.17 44.93 44.21 43.13 42.87 43.00 43.09 43.31 43.44 43.30 42.97 42.37 41.91 41.50 41.05 41.15
51.54 51.49 51.35 51.12 50.67 50.05 49.38 48.80 49.12 49.84 50.66 51.34 51.69 51.97 52.00 51.91 51.74 51.78 52.15 52.69 52.78 52.78 52.77 52.72 53.25 53.56 53.50 52.77 52.25 51.96 51.68 51.19 49.90 48.04 46.23 45.10 45.06 45.18 45.43 45.81 45.90 47.50 50.32 54.26 54.99 54.97 54.52 54.23 53.77 52.48 50.28 47.06 45.37 44.70 44.54 43.96 43.40 43.06 43.06 43.18 43.31 43.30 43.25 43.33 43.15 42.65 41.98 41.40 41.59
51.49 51.49 51.35 51.08 50.58 50.14 49.65 49.16 49.16 49.75 50.47 51.02 51.33 51.56 51.69 51.55 51.47 51.56 51.92 52.42 52.42 52.46 52.60 52.77 53.26 53.39 53.16 52.70 52.54 52.28 51.82 51.06 49.60 47.60 45.80 44.85 44.76 44.76 44.97 45.38 45.85 48.27 51.77 55.30 55.69 55.56 55.09 54.78 54.34 53.52 52.00 49.75 46.76 45.44 45.07 44.58 44.17 43.66 43.36 43.57 43.40 43.44 43.52 43.56 43.43 42.98 42.40 41.93 42.16
51.48 51.53 51.39 51.08 50.72 50.27 49.83 49.34 49.30 49.75 50.42 51.05 51.10 51.06 51.02 51.15 51.15 51.38 51.69 51.97 52.06 52.24 52.55 52.95 53.04 52.94 52.71 52.48 52.55 52.49 52.03 51.08 49.11 47.24 45.67 44.89 44.63 44.80 45.35 46.52 46.34 48.72 52.34 55.80 56.11 56.02 55.61 55.16 54.67 53.96 52.85 51.15 47.84 45.86 45.00 44.71 44.29 44.00 43.79 43.66 43.12 43.02 43.11 43.24 42.83 42.60 42.64 43.03 43.00
51.31 51.53 51.48 51.21 50.76 50.44 50.00 49.60 49.43 49.79 50.38 51.05 50.97 50.66 50.48 50.75 50.79 51.02 51.24 51.51 51.97 52.41 52.76 52.58 52.59 52.40 52.31 52.44 52.61 52.42 52.01 51.02 48.90 47.03 45.76 45.23 46.29 46.20 45.91 46.24 46.66 49.28 52.86 56.22 56.47 56.32 55.87 55.35 54.83 54.19 53.19 51.91 48.75 46.27 44.83 44.42 44.13 44.04 43.95 43.65 43.14 43.00 43.13 43.18 43.04 43.13 43.29 43.54 43.79
51.09 51.27 51.45 51.26 50.94 50.66 50.39 49.95 49.74 49.92 50.33 50.74 50.83 50.52 50.29 50.20 50.43 50.74 51.10 51.46 51.92 52.23 52.32 52.09 52.09 52.05 52.18 52.31 52.31 52.26 51.94 50.90 48.74 46.99 45.98 45.79 46.09 46.13 46.26 46.78 47.45 50.08 53.48 56.80 56.74 56.45 56.02 55.52 54.95 54.26 53.41 52.19 49.17 45.97 43.74 43.95 43.69 43.59 43.50 43.12 43.11 43.34 43.70 44.20 43.93 43.69 43.68 44.25 44.73
51.03 51.17 51.27 51.18 50.99 50.84 50.66 50.34 50.08 50.09 50.32 50.51 50.59 50.46 50.20 49.71 50.02 50.47 50.97 51.51 51.69 51.69 51.65 51.65 51.78 51.87 52.01 52.23 52.14 52.00 51.64 50.64 49.06 48.18 47.71 47.20 46.69 46.61 47.05 47.97 48.59 51.25 54.63 57.16 56.83 56.46 56.04 55.56 54.94 54.28 53.38 52.21 48.58 45.44 43.51 43.81 43.84 43.52 43.00 42.27 42.64 43.14 43.64 44.00 44.18 44.21 44.29 44.69 45.04
50.98 50.99 51.04 51.05 51.09 50.99 50.85 50.66 50.34 50.26 50.27 50.28 50.36 50.32 50.06 49.52 49.57 50.06 50.74 51.41 51.37 51.29 51.20 51.37 51.69 51.77 52.00 52.22 52.18 52.00 51.77 51.32 49.15 47.75 47.16 47.14 47.01 47.31 47.84 48.33 49.47 52.54 55.72 57.27 56.83 56.40 55.94 55.52 54.97 54.18 53.13 51.59 47.66 45.07 43.76 43.97 44.09 43.63 42.98 42.08 41.86 42.18 42.77 43.45 43.67 44.07 44.38 44.60 45.09
50.90 50.90 50.90 50.90 50.99 51.04 50.90 50.67 50.49 50.31 50.13 50.09 50.13 50.13 50.01 49.52 49.25 49.70 50.55 51.63 51.58 51.23 50.97 51.23 51.63 51.94 52.16 52.31 52.31 52.13 51.77 51.00 48.52 47.30 46.94 47.32 47.66 48.18 48.64 48.84 50.13 53.40 56.47 57.11 56.61 56.25 55.94 55.41 54.78 53.95 52.48 50.18 46.55 44.68 44.14 44.17 44.03 43.52 42.70 42.08 41.45 41.23 41.42 41.96 42.63 43.21 43.71 44.20 44.38
50.86 50.76 50.76 50.76 50.86 50.90 50.86 50.68 50.50 50.28 50.05 49.95 49.90 49.95 49.87 49.52 49.02 49.48 50.55 51.88 51.80 51.32 50.83 50.92 51.35 51.61 51.80 52.09 52.22 52.35 51.99 50.42 48.15 47.12 47.27 48.00 48.35 48.67 48.91 49.25 50.59 53.75 56.45 56.88 56.51 56.10 55.80 55.32 54.58 53.45 51.47 48.34 45.71 44.72 44.67 44.80 44.57 43.62 42.70 42.25 41.44 40.86 40.65 41.10 41.82 42.31 42.90 43.52 43.61
51.07 50.81 50.63 50.55 50.55 50.68 50.68 50.59 50.41 50.19 49.96 49.91 49.91 49.86 49.82 49.60 49.29 49.38 50.14 51.75 51.36 50.92 50.56 50.42 50.73 50.99 51.35 51.81 52.00 52.23 51.86 50.60 48.42 47.50 47.77 49.15 49.33 49.36 49.39 49.77 50.73 53.33 55.71 56.61 56.32 56.01 55.62 55.10 54.33 52.73 50.32 46.79 45.07 44.72 44.85 44.93 44.75 43.93 42.89 42.07 40.86 40.28 40.32 40.82 41.27 41.68 42.13 42.45 43.48
51.46 51.15 50.85 50.51 50.33 50.33 50.37 50.36 50.23 50.01 49.92 49.92 50.05 49.91 49.82 49.60 49.38 49.43 50.10 51.79 51.14 50.83 50.64 50.33 50.15 50.31 50.84 51.57 52.04 52.09 51.87 51.14 49.49 48.37 48.19 49.44 49.71 49.87 50.03 50.15 50.76 52.60 54.73 56.31 56.22 55.88 55.43 54.93 53.95 52.16 49.57 46.08 45.07 44.94 45.20 45.11 44.57 44.07 43.43 42.70 41.03 40.36 40.40 40.84 41.16 41.66 42.22 43.13 46.25
51.82 51.46 51.11 50.68 50.37 50.15 49.97 49.79 49.61 49.61 49.79 50.01 50.06 50.05 49.91 49.69 49.60 49.86 50.58 51.65 51.05 50.74 50.69 50.37 50.05 50.08 50.65 51.64 52.04 52.05 51.92 51.60 50.56 49.56 48.92 49.22 49.97 50.76 51.17 50.68 50.99 52.32 54.21 55.91 55.95 55.73 55.22 54.72 53.63 52.12 49.98 46.91 45.66 45.49 45.62 45.33 44.40 43.76 43.25 42.61 41.39 40.67 40.40 40.52 40.97 41.61 42.88 44.87 49.15
52.12 51.77 51.37 51.02 50.76 50.41 49.96 49.43 49.25 49.38 49.79 50.06 50.06 50.01 49.96 49.96 49.99 50.47 50.96 51.46 50.82 50.74 50.78 50.59 50.13 50.20 50.76 52.04 52.02 51.87 51.79 51.83 50.85 50.11 49.68 49.70 50.71 52.12 52.68 51.34 51.25 52.30 53.78 55.48 55.68 55.51 55.05 54.40 53.42 52.20 50.30 47.35 46.07 45.86 46.00 45.50 44.63 43.90 43.38 42.93 42.38 41.57 40.70 40.16 40.70 41.51 42.83 44.72 48.85
52.30 51.98 51.63 51.28 51.02 50.71 50.31 49.65 49.29 49.34 49.52 49.79 50.01 50.19 50.42 50.59 50.58 50.74 50.92 51.15 50.82 50.73 50.83 50.87 50.36 50.30 50.76 52.03 51.96 51.78 51.61 51.69 51.18 50.46 50.13 50.61 51.32 52.63 53.14 51.70 51.45 52.02 53.17 54.70 55.33 55.34 54.88 54.24 53.43 52.32 50.54 47.67 46.28 46.03 46.11 45.66 44.85 44.04 43.35 43.16 43.29 42.75 41.75 40.61 40.70 41.33 42.24 43.24 45.93
MSLP
1013.50 1013.70 1013.90 1014.02 1014.10 1014.18 1014.34 1014.58 1014.74 1014.90 1015.06 1015.14 1015.18 1015.30 1015.34 1015.42 1015.54 1015.74 1015.90 1015.94 1016.02 1016.14 1016.22 1016.34 1016.42 1016.46 1016.54 1016.62 1016.62 1016.74 1016.82 1016.90 1017.02 1017.06 1017.18 1017.26 1017.38 1017.46 1017.62 1017.70 1017.74 1017.86 1017.98 1018.14 1018.26 1018.38 1018.50 1018.62 1018.70 1018.82 1018.94 1019.06 1019.18 1019.34 1019.46 1019.58 1019.70 1019.74 1019.82 1019.90 1020.02 1020.14 1020.26 1020.38 1020.50 1020.62 1020.74 1020.90 1021.02
1013.46 1013.66 1013.86 1014.02 1014.10 1014.22 1014.42 1014.58 1014.74 1014.90 1015.06 1015.14 1015.22 1015.34 1015.38 1015.46 1015.58 1015.74 1015.90 1016.02 1016.10 1016.18 1016.26 1016.34 1016.46 1016.54 1016.62 1016.66 1016.70 1016.74 1016.82 1016.94 1017.06 1017.10 1017.18 1017.30 1017.42 1017.50 1017.62 1017.70 1017.78 1017.90 1018.02 1018.14 1018.26 1018.42 1018.54 1018.66 1018.74 1018.86 1018.98 1019.10 1019.22 1019.34 1019.50 1019.62 1019.70 1019.74 1019.86 1019.94 1020.02 1020.14 1020.30 1020.42 1020.54 1020.70 1020.86 1020.98 1021.10
1013.50 1013.66 1013.86 1014.02 1014.14 1014.26 1014.42 1014.54 1014.70 1014.82 1014.98 1015.14 1015.22 1015.34 1015.42 1015.46 1015.62 1015.78 1015.94 1016.06 1016.14 1016.22 1016.26 1016.34 1016.46 1016.54 1016.62 1016.70 1016.74 1016.78 1016.90 1016.98 1017.06 1017.14 1017.22 1017.34 1017.46 1017.58 1017.66 1017.74 1017.82 1017.94 1018.06 1018.18 1018.34 1018.46 1018.58 1018.66 1018.74 1018.86 1018.98 1019.10 1019.26 1019.42 1019.54 1019.66 1019.74 1019.78 1019.90 1019.98 1020.06 1020.18 1020.30 1020.46 1020.62 1020.78 1020.94 1021.10 1021.22
1013.50 1013.70 1013.86 1013.98 1014.14 1014.22 1014.34 1014.46 1014.62 1014.74 1014.90 1015.06 1015.18 1015.34 1015.42 1015.50 1015.62 1015.78 1015.98 1016.10 1016.18 1016.18 1016.26 1016.30 1016.42 1016.58 1016.66 1016.70 1016.74 1016.82 1016.94 1017.06 1017.14 1017.18 1017.30 1017.34 1017.46 1017.58 1017.66 1017.78 1017.90 1018.02 1018.14 1018.26 1018.38 1018.50 1018.62 1018.74 1018.78 1018.90 1018.98 1019.14 1019.26 1019.42 1019.58 1019.70 1019.78 1019.86 1019.94 1020.02 1020.06 1020.18 1020.30 1020.46 1020.62 1020.82 1020.98 1021.18 1021.30
1013.58 1013.70 1013.78 1013.90 1014.02 1014.14 1014.26 1014.38 1014.54 1014.70 1014.86 1014.98 1015.14 1015.26 1015.38 1015.46 1015.62 1015.78 1015.94 1016.02 1016.10 1016.14 1016.18 1016.22 1016.42 1016.62 1016.70 1016.70 1016.74 1016.86 1016.98 1017.10 1017.18 1017.22 1017.34 1017.42 1017.50 1017.62 1017.74 1017.86 1017.94 1018.06 1018.18 1018.34 1018.46 1018.54 1018.62 1018.74 1018.82 1018.90 1019.06 1019.18 1019.30 1019.42 1019.62 1019.74 1019.82 1019.90 1020.02 1020.06 1020.14 1020.22 1020.34 1020.46 1020.66 1020.86 1021.06 1021.18 1021.34
1013.58 1013.70 1013.78 1013.90 1014.02 1014.10 1014.22 1014.38 1014.54 1014.66 1014.74 1014.90 1015.06 1015.18 1015.34 1015.42 1015.54 1015.74 1015.90 1015.98 1016.02 1016.10 1016.10 1016.18 1016.38 1016.54 1016.62 1016.66 1016.74 1016.90 1017.02 1017.14 1017.18 1017.22 1017.34 1017.42 1017.54 1017.66 1017.78 1017.90 1017.98 1018.10 1018.22 1018.34 1018.46 1018.58 1018.66 1018.74 1018.90 1019.02 1019.10 1019.18 1019.34 1019.46 1019.62 1019.74 1019.90 1019.98 1020.02 1020.14 1020.18 1020.26 1020.38 1020.54 1020.70 1020.90 1021.06 1021.22 1021.38
1013.62 1013.74 1013.82 1013.90 1014.02 1014.10 1014.22 1014.38 1014.54 1014.66 1014.78 1014.90 1015.02 1015.10 1015.22 1015.34 1015.42 1015.62 1015.78 1015.90 1016.02 1016.02 1016.10 1016.22 1016.42 1016.54 1016.62 1016.66 1016.74 1016.90 1017.06 1017.14 1017.18 1017.26 1017.34 1017.42 1017.54 1017.66 1017.74 1017.90 1017.98 1018.10 1018.26 1018.38 1018.50 1018.62 1018.70 1018.74 1018.90 1019.02 1019.10 1019.22 1019.38 1019.58 1019.74 1019.82 1019.90 1020.02 1020.10 1020.18 1020.26 1020.34 1020.46 1020.62 1020.74 1020.94 1021.10 1021.26 1021.42
1013.74 1013.78 1013.86 1013.90 1014.02 1014.14 1014.26 1014.38 1014.54 1014.66 1014.74 1014.90 1014.94 1015.06 1015.18 1015.22 1015.34 1015.50 1015.70 1015.90 1015.94 1016.02 1016.10 1016.26 1016.42 1016.50 1016.58 1016.62 1016.74 1016.90 1017.02 1017.14 1017.18 1017.30 1017.34 1017.42 1017.54 1017.62 1017.78 1017.90 1018.02 1018.18 1018.30 1018.42 1018.50 1018.62 1018.70 1018.78 1018.90 1019.02 1019.14 1019.26 1019.42 1019.62 1019.74 1019.86 1019.94 1020.02 1020.18 1020.26 1020.34 1020.42 1020.46 1020.62 1020.78 1020.98 1021.18 1021.30 1021.46
1013.90 1013.90 1013.94 1014.02 1014.10 1014.18 1014.34 1014.42 1014.50 1014.62 1014.74 1014.86 1014.90 1015.02 1015.10 1015.22 1015.30 1015.46 1015.62 1015.82 1015.90 1015.98 1016.14 1016.34 1016.42 1016.46 1016.54 1016.62 1016.74 1016.86 1017.02 1017.10 1017.18 1017.30 1017.38 1017.42 1017.50 1017.62 1017.78 1017.90 1018.06 1018.18 1018.30 1018.42 1018.50 1018.62 1018.74 1018.82 1018.90 1019.06 1019.18 1019.30 1019.46 1019.62 1019.78 1019.90 1020.02 1020.14 1020.26 1020.34 1020.42 1020.50 1020.62 1020.74 1020.90 1021.06 1021.18 1021.30 1021.42
1013.98 1014.02 1014.06 1014.18 1014.22 1014.30 1014.38 1014.46 1014.58 1014.62 1014.70 1014.82 1014.90 1014.98 1015.06 1015.18 1015.30 1015.42 1015.58 1015.74 1015.90 1016.02 1016.18 1016.34 1016.38 1016.46 1016.58 1016.66 1016.74 1016.86 1016.98 1017.06 1017.18 1017.26 1017.38 1017.46 1017.54 1017.62 1017.74 1017.90 1018.06 1018.18 1018.30 1018.42 1018.54 1018.62 1018.74 1018.86 1018.98 1019.10 1019.22 1019.34 1019.50 1019.70 1019.86 1019.94 1020.06 1020.18 1020.30 1020.34 1020.46 1020.62 1020.74 1020.86 1020.94 1021.06 1021.18 1021.30 1021.42
1014.02 1014.10 1014.18 1014.30 1014.34 1014.38 1014.46 1014.54 1014.62 1014.70 1014.74 1014.86 1014.94 1015.02 1015.06 1015.18 1015.30 1015.42 1015.58 1015.74 1015.90 1016.02 1016.18 1016.26 1016.34 1016.46 1016.58 1016.66 1016.74 1016.78 1016.90 1017.06 1017.18 1017.26 1017.34 1017.46 1017.54 1017.66 1017.78 1017.90 1018.02 1018.18 1018.30 1018.42 1018.54 1018.66 1018.78 1018.90 1019.06 1019.18 1019.30 1019.46 1019.62 1019.74 1019.90 1020.02 1020.10 1020.18 1020.30 1020.38 1020.46 1020.62 1020.74 1020.90 1021.02 1021.10 1021.18 1021.30 1021.42
1014.18 1014.26 1014.34 1014.38 1014.46 1014.46 1014.54 1014.62 1014.70 1014.74 1014.82 1014.90 1014.94 1015.02 1015.06 1015.18 1015.30 1015.38 1015.54 1015.74 1015.90 1016.02 1016.14 1016.26 1016.34 1016.46 1016.58 1016.66 1016.74 1016.82 1016.90 1017.06 1017.18 1017.30 1017.38 1017.46 1017.58 1017.70 1017.82 1017.90 1018.02 1018.18 1018.34 1018.42 1018.54 1018.66 1018.78 1018.90 1019.06 1019.18 1019.34 1019.50 1019.66 1019.82 1019.94 1020.02 1020.14 1020.22 1020.34 1020.46 1020.54 1020.62 1020.74 1020.90 1021.02 1021.14 1021.22 1021.34 1021.46
1014.34 1014.42 1014.46 1014.50 1014.58 1014.62 1014.62 1014.70 1014.74 1014.82 1014.90 1014.90 1014.94 1015.02 1015.06 1015.18 1015.30 1015.34 1015.46 1015.66 1015.86 1015.94 1016.02 1016.18 1016.34 1016.46 1016.58 1016.66 1016.74 1016.82 1016.90 1017.06 1017.18 1017.30 1017.42 1017.50 1017.62 1017.74 1017.86 1017.94 1018.06 1018.18 1018.34 1018.46 1018.62 1018.70 1018.78 1018.94 1019.10 1019.22 1019.38 1019.62 1019.74 1019.86 1019.98 1020.06 1020.18 1020.30 1020.38 1020.46 1020.58 1020.62 1020.74 1020.90 1021.06 1021.18 1021.30 1021.42 1021.54
1014.46 1014.50 1014.58 1014.62 1014.66 1014.70 1014.74 1014.78 1014.90 1014.90 1014.94 1014.94 1014.98 1015.06 1015.14 1015.22 1015.26 1015.30 1015.38 1015.62 1015.78 1015.90 1016.02 1016.18 1016.34 1016.46 1016.54 1016.62 1016.74 1016.82 1016.90 1017.06 1017.18 1017.30 1017.42 1017.50 1017.62 1017.74 1017.86 1017.94 1018.06 1018.18 1018.38 1018.50 1018.62 1018.74 1018.82 1018.98 1019.10 1019.22 1019.42 1019.62 1019.74 1019.90 1019.98 1020.06 1020.18 1020.26 1020.34 1020.46 1020.54 1020.66 1020.78 1020.90 1021.06 1021.18 1021.34 1021.50 1021.62
1014.54 1014.62 1014.66 1014.70 1014.70 1014.74 1014.86 1014.90 1014.94 1015.02 1015.02 1015.02 1015.02 1015.06 1015.18 1015.26 1015.26 1015.30 1015.38 1015.58 1015.74 1015.90 1015.98 1016.14 1016.30 1016.42 1016.50 1016.62 1016.70 1016.78 1016.90 1017.06 1017.18 1017.30 1017.42 1017.54 1017.66 1017.74 1017.86 1017.90 1018.06 1018.22 1018.38 1018.54 1018.62 1018.74 1018.82 1018.98 1019.10 1019.22 1019.42 1019.62 1019.74 1019.90 1020.02 1020.06 1020.18 1020.26 1020.34 1020.42 1020.46 1020.62 1020.74 1020.90 1021.06 1021.22 1021.38 1021.58 1021.74
1014.62 1014.70 1014.74 1014.74 1014.78 1014.86 1014.90 1014.98 1015.06 1015.06 1015.10 1015.06 1015.10 1015.18 1015.18 1015.22 1015.26 1015.30 1015.34 1015.50 1015.70 1015.90 1015.98 1016.10 1016.26 1016.42 1016.50 1016.58 1016.62 1016.74 1016.90 1017.06 1017.18 1017.30 1017.46 1017.58 1017.66 1017.74 1017.82 1017.90 1018.06 1018.26 1018.42 1018.54 1018.62 1018.74 1018.86 1018.98 1019.10 1019.22 1019.42 1019.62 1019.74 1019.90 1020.02 1020.06 1020.18 1020.26 1020.34 1020.38 1020.46 1020.58 1020.74 1020.90 1021.06 1021.22 1021.38 1021.58 1021.78
1014.70 1014.74 1014.78 1014.86 1014.90 1014.90 1014.94 1015.06 1015.10 1015.18 1015.18 1015.18 1015.18 1015.22 1015.22 1015.22 1015.26 1015.30 1015.34 1015.42 1015.66 1015.86 1015.98 1016.10 1016.22 1016.34 1016.46 1016.54 1016.62 1016.70 1016.86 1017.02 1017.14 1017.30 1017.42 1017.54 1017.62 1017.74 1017.82 1017.90 1018.06 1018.22 1018.38 1018.50 1018.62 1018.74 1018.90 1019.02 1019.14 1019.26 1019.42 1019.58 1019.74 1019.86 1019.98 1020.06 1020.18 1020.30 1020.34 1020.46 1020.50 1020.62 1020.70 1020.82 1021.02 1021.22 1021.42 1021.62 1021.78
1014.74 1014.82 1014.86 1014.90 1014.90 1014.94 1015.02 1015.10 1015.18 1015.22 1015.26 1015.30 1015.30 1015.30 1015.26 1015.22 1015.30 1015.34 1015.34 1015.42 1015.62 1015.82 1015.98 1016.06 1016.18 1016.30 1016.38 1016.46 1016.54 1016.66 1016.74 1016.90 1017.14 1017.30 1017.38 1017.50 1017.58 1017.70 1017.82 1017.90 1018.02 1018.22 1018.34 1018.46 1018.58 1018.70 1018.86 1019.02 1019.18 1019.34 1019.46 1019.58 1019.74 1019.86 1019.98 1020.10 1020.18 1020.30 1020.42 1020.50 1020.54 1020.62 1020.74 1020.86 1021.02 1021.18 1021.38 1021.62 1021.78
1014.78 1014.82 1014.90 1014.94 1014.98 1015.02 1015.06 1015.14 1015.18 1015.30 1015.34 1015.38 1015.38 1015.38 1015.34 1015.30 1015.34 1015.34 1015.38 1015.42 1015.62 1015.78 1015.90 1015.98 1016.10 1016.22 1016.34 1016.38 1016.50 1016.62 1016.74 1016.90 1017.06 1017.22 1017.34 1017.46 1017.54 1017.66 1017.78 1017.90 1018.06 1018.22 1018.34 1018.42 1018.50 1018.62 1018.78 1018.98 1019.18 1019.34 1019.46 1019.62 1019.74 1019.90 1020.02 1020.14 1020.22 1020.34 1020.46 1020.54 1020.62 1020.70 1020.78 1020.90 1021.06 1021.18 1021.34 1021.54 1021.74
1014.74 1014.78 1014.86 1014.94 1015.02 1015.06 1015.10 1015.18 1015.26 1015.34 1015.42 1015.46 1015.46 1015.46 1015.42 1015.38 1015.42 1015.46 1015.46 1015.46 1015.54 1015.74 1015.90 1015.94 1016.06 1016.18 1016.26 1016.34 1016.46 1016.62 1016.74 1016.86 1017.02 1017.18 1017.34 1017.42 1017.54 1017.66 1017.78 1017.94 1018.10 1018.22 1018.34 1018.42 1018.50 1018.62 1018.74 1018.94 1019.14 1019.34 1019.50 1019.66 1019.78 1019.94 1020.06 1020.18 1020.30 1020.38 1020.46 1020.58 1020.66 1020.74 1020.86 1020.98 1021.10 1021.22 1021.34 1021.54 1021.74
1014.66 1014.74 1014.82 1014.90 1014.98 1015.06 1015.18 1015.22 1015.30 1015.38 1015.46 1015.50 1015.54 1015.50 1015.50 1015.50 1015.54 1015.54 1015.54 1015.46 1015.54 1015.74 1015.90 1015.98 1016.02 1016.14 1016.26 1016.34 1016.46 1016.62 1016.74 1016.82 1016.98 1017.14 1017.26 1017.38 1017.50 1017.62 1017.74 1017.94 1018.06 1018.18 1018.34 1018.38 1018.46 1018.62 1018.74 1018.90 1019.10 1019.34 1019.46 1019.62 1019.78 1019.94 1020.10 1020.22 1020.34 1020.46 1020.54 1020.62 1020.74 1020.82 1020.90 1021.02 1021.14 1021.26 1021.42 1021.62 1021.78
1014.62 1014.66 1014.74 1014.86 1014.94 1015.06 1015.18 1015.26 1015.34 1015.46 1015.54 1015.58 1015.58 1015.62 1015.62 1015.62 1015.62 1015.62 1015.62 1015.58 1015.58 1015.66 1015.86 1015.98 1016.02 1016.06 1016.18 1016.34 1016.46 1016.62 1016.70 1016.78 1016.94 1017.10 1017.22 1017.34 1017.46 1017.62 1017.74 1017.90 1018.02 1018.18 1018.30 1018.38 1018.50 1018.62 1018.74 1018.90 1019.06 1019.26 1019.46 1019.62 1019.78 1019.94 1020.06 1020.18 1020.38 1020.50 1020.66 1020.74 1020.86 1020.90 1021.02 1021.06 1021.18 1021.30 1021.46 1021.62 1021.78
1014.62 1014.66 1014.74 1014.82 1014.90 1014.98 1015.10 1015.26 1015.38 1015.46 1015.58 1015.66 1015.66 1015.70 1015.74 1015.74 1015.74 1015.74 1015.66 1015.62 1015.62 1015.62 1015.74 1015.90 1015.98 1016.06 1016.18 1016.30 1016.42 1016.54 1016.66 1016.78 1016.98 1017.14 1017.22 1017.34 1017.46 1017.62 1017.74 1017.86 1018.02 1018.14 1018.26 1018.34 1018.46 1018.62 1018.74 1018.90 1019.10 1019.26 1019.42 1019.58 1019.78 1019.94 1020.06 1020.18 1020.34 1020.50 1020.70 1020.86 1020.94 1021.02 1021.10 1021.18 1021.22 1021.34 1021.50 1021.66 1021.82
1014.62 1014.70 1014.74 1014.82 1014.86 1014.90 1015.06 1015.22 1015.38 1015.54 1015.62 1015.70 1015.74 1015.74 1015.78 1015.82 1015.82 1015.74 1015.70 1015.66 1015.62 1015.62 1015.70 1015.78 1015.90 1016.02 1016.18 1016.30 1016.38 1016.46 1016.58 1016.74 1016.94 1017.14 1017.26 1017.38 1017.46 1017.58 1017.74 1017.86 1017.98 1018.06 1018.18 1018.34 1018.42 1018.50 1018.66 1018.90 1019.10 1019.26 1019.38 1019.58 1019.74 1019.90 1020.02 1020.18 1020.34 1020.46 1020.66 1020.86 1020.98 1021.10 1021.18 1021.26 1021.34 1021.46 1021.58 1021.74 1021.90
1014.70 1014.74 1014.78 1014.82 1014.90 1014.94 1015.06 1015.18 1015.38 1015.50 1015.62 1015.74 1015.74 1015.82 1015.86 1015.90 1015.90 1015.82 1015.74 1015.74 1015.70 1015.70 1015.74 1015.74 1015.78 1015.94 1016.14 1016.34 1016.38 1016.46 1016.54 1016.74 1016.90 1017.10 1017.30 1017.38 1017.46 1017.62 1017.70 1017.78 1017.90 1018.02 1018.14 1018.22 1018.26 1018.34 1018.50 1018.70 1018.90 1019.14 1019.34 1019.54 1019.74 1019.90 1020.06 1020.18 1020.34 1020.46 1020.62 1020.78 1020.98 1021.18 1021.30 1021.42 1021.50 1021.62 1021.66 1021.82 1021.94
1014.74 1014.78 1014.82 1014.90 1014.94 1015.02 1015.10 1015.18 1015.34 1015.46 1015.62 1015.74 1015.82 1015.90 1015.90 1015.90 1015.90 1015.90 1015.82 1015.78 1015.74 1015.74 1015.78 1015.78 1015.78 1015.90 1016.06 1016.26 1016.34 1016.46 1016.58 1016.74 1016.90 1017.06 1017.22 1017.34 1017.50 1017.62 1017.66 1017.74 1017.86 1017.98 1018.06 1018.10 1018.18 1018.30 1018.42 1018.58 1018.74 1018.98 1019.22 1019.46 1019.70 1019.90 1020.10 1020.26 1020.34 1020.46 1020.62 1020.74 1020.90 1021.10 1021.34 1021.50 1021.62 1021.74 1021.78 1021.90 1021.98
1014.86 1014.86 1014.86 1014.90 1014.98 1015.06 1015.18 1015.26 1015.34 1015.46 1015.62 1015.74 1015.86 1015.90 1015.94 1015.94 1015.94 1015.94 1015.90 1015.86 1015.86 1015.86 1015.86 1015.86 1015.82 1015.86 1015.94 1016.10 1016.26 1016.42 1016.58 1016.70 1016.90 1017.06 1017.18 1017.30 1017.46 1017.54 1017.62 1017.74 1017.82 1017.90 1017.98 1017.98 1018.06 1018.18 1018.34 1018.50 1018.70 1018.90 1019.18 1019.42 1019.62 1019.82 1020.06 1020.26 1020.42 1020.50 1020.62 1020.78 1020.90 1021.06 1021.22 1021.46 1021.62 1021.74 1021.90 1022.02 1022.06
1014.90 1014.86 1014.86 1014.90 1015.02 1015.10 1015.18 1015.34 1015.38 1015.46 1015.58 1015.70 1015.90 1015.94 1015.94 1015.98 1015.98 1015.98 1015.98 1015.90 1015.90 1015.90 1015.90 1015.90 1015.86 1015.82 1015.90 1016.02 1016.18 1016.30 1016.46 1016.62 1016.78 1016.98 1017.14 1017.26 1017.38 1017.46 1017.58 1017.66 1017.74 1017.86 1017.90 1017.86 1017.98 1018.10 1018.26 1018.42 1018.62 1018.86 1019.10 1019.34 1019.54 1019.74 1019.98 1020.18 1020.34 1020.54 1020.66 1020.78 1020.90 1021.06 1021.22 1021.38 1021.54 1021.74 1021.90 1022.06 1022.18
1014.90 1014.90 1014.90 1014.90 1014.98 1015.06 1015.18 1015.34 1015.38 1015.42 1015.50 1015.66 1015.82 1015.94 1015.98 1016.02 1016.02 1016.02 1016.02 1015.98 1015.94 1015.90 1015.90 1015.90 1015.90 1015.90 1015.98 1016.06 1016.14 1016.22 1016.38 1016.54 1016.74 1016.90 1017.06 1017.18 1017.34 1017.46 1017.50 1017.58 1017.70 1017.74 1017.78 1017.74 1017.86 1017.98 1018.14 1018.30 1018.54 1018.78 1019.02 1019.22 1019.46 1019.70 1019.90 1020.10 1020.30 1020.46 1020.62 1020.74 1020.90 1021.06 1021.22 1021.38 1021.50 1021.70 1021.90 1022.06 1022.22
1014.86 1014.90 1014.90 1014.90 1014.98 1015.06 1015.18 1015.30 1015.34 1015.42 1015.50 1015.66 1015.82 1015.94 1016.02 1016.02 1016.02 1016.06 1016.06 1016.02 1016.02 1015.94 1015.90 1015.90 1015.90 1015.94 1016.02 1016.10 1016.18 1016.30 1016.38 1016.46 1016.62 1016.78 1016.98 1017.18 1017.34 1017.42 1017.46 1017.50 1017.62 1017.70 1017.74 1017.70 1017.74 1017.90 1018.06 1018.26 1018.46 1018.70 1018.98 1019.18 1019.46 1019.66 1019.86 1020.02 1020.18 1020.38 1020.58 1020.74 1020.90 1021.06 1021.18 1021.34 1021.54 1021.70 1021.86 1022.02 1022.18
1014.82 1014.86 1014.86 1014.90 1015.02 1015.10 1015.18 1015.26 1015.34 1015.46 1015.54 1015.62 1015.74 1015.90 1016.02 1016.02 1016.10 1016.10 1016.10 1016.06 1016.02 1016.02 1015.98 1015.90 1015.94 1015.98 1016.02 1016.14 1016.18 1016.30 1016.38 1016.46 1016.58 1016.70 1016.90 1017.06 1017.18 1017.30 1017.42 1017.46 1017.58 1017.62 1017.62 1017.62 1017.70 1017.82 1018.02 1018.18 1018.38 1018.62 1018.94 1019.18 1019.42 1019.62 1019.82 1020.02 1020.18 1020.30 1020.46 1020.66 1020.86 1021.06 1021.18 1021.34 1021.46 1021.62 1021.78 1021.98 1022.18
1014.74 1014.78 1014.86 1014.90 1014.98 1015.06 1015.18 1015.30 1015.38 1015.46 1015.54 1015.62 1015.74 1015.86 1015.94 1016.02 1016.10 1016.14 1016.14 1016.14 1016.14 1016.06 1016.02 1015.98 1015.98 1016.02 1016.10 1016.18 1016.26 1016.34 1016.38 1016.50 1016.62 1016.70 1016.78 1016.90 1017.06 1017.22 1017.34 1017.46 1017.50 1017.58 1017.54 1017.50 1017.62 1017.78 1017.98 1018.18 1018.38 1018.66 1018.90 1019.14 1019.38 1019.62 1019.86 1020.02 1020.18 1020.30 1020.46 1020.62 1020.78 1020.94 1021.06 1021.26 1021.46 1021.62 1021.74 1021.90 1022.02
1014.66 1014.74 1014.82 1014.90 1014.98 1015.06 1015.18 1015.30 1015.38 1015.46 1015.54 1015.62 1015.74 1015.78 1015.90 1016.02 1016.06 1016.14 1016.18 1016.18 1016.18 1016.10 1016.06 1016.02 1016.02 1016.02 1016.14 1016.18 1016.26 1016.34 1016.46 1016.58 1016.70 1016.70 1016.70 1016.74 1016.90 1017.10 1017.26 1017.38 1017.46 1017.46 1017.46 1017.46 1017.58 1017.74 1017.94 1018.14 1018.38 1018.66 1018.90 1019.14 1019.42 1019.70 1019.90 1020.02 1020.18 1020.34 1020.50 1020.66 1020.74 1020.90 1021.02 1021.18 1021.34 1021.50 1021.62 1021.78 1021.94
1014.62 1014.74 1014.82 1014.90 1014.94 1015.06 1015.18 1015.30 1015.38 1015.46 1015.58 1015.66 1015.74 1015.78 1015.86 1015.94 1016.02 1016.14 1016.18 1016.18 1016.18 1016.18 1016.14 1016.06 1016.06 1016.06 1016.06 1016.14 1016.22 1016.34 1016.46 1016.62 1016.74 1016.74 1016.70 1016.70 1016.82 1016.98 1017.18 1017.30 1017.34 1017.34 1017.34 1017.38 1017.54 1017.74 1017.90 1018.14 1018.38 1018.66 1018.94 1019.22 1019.54 1019.78 1019.98 1020.10 1020.30 1020.46 1020.62 1020.78 1020.90 1020.98 1021.06 1021.18 1021.34 1021.46 1021.58 1021.74 1021.90
1014.50 1014.62 1014.74 1014.82 1014.90 1015.02 1015.14 1015.30 1015.42 1015.50 1015.62 1015.70 1015.74 1015.78 1015.82 1015.90 1016.02 1016.10 1016.14 1016.18 1016.22 1016.26 1016.22 1016.18 1016.14 1016.10 1016.14 1016.18 1016.26 1016.34 1016.46 1016.62 1016.78 1016.82 1016.74 1016.66 1016.74 1016.90 1017.06 1017.22 1017.30 1017.26 1017.22 1017.34 1017.54 1017.74 1017.90 1018.14 1018.42 1018.70 1019.02 1019.34 1019.66 1019.86 1020.02 1020.18 1020.38 1020.54 1020.70 1020.86 1021.02 1021.10 1021.18 1021.30 1021.42 1021.50 1021.58 1021.70 1021.90
1014.38 1014.54 1014.66 1014.74 1014.90 1015.02 1015.10 1015.26 1015.38 1015.50 1015.62 1015.66 1015.74 1015.78 1015.82 1015.90 1015.98 1016.02 1016.10 1016.18 1016.22 1016.26 1016.26 1016.18 1016.18 1016.18 1016.18 1016.22 1016.30 1016.34 1016.46 1016.62 1016.74 1016.78 1016.74 1016.62 1016.62 1016.74 1016.98 1017.14 1017.22 1017.18 1017.18 1017.34 1017.54 1017.74 1017.94 1018.18 1018.46 1018.74 1019.06 1019.42 1019.74 1019.90 1020.02 1020.22 1020.46 1020.62 1020.78 1020.90 1021.10 1021.26 1021.34 1021.42 1021.50 1021.58 1021.66 1021.78 1021.94
1014.34 1014.46 1014.58 1014.66 1014.78 1014.90 1015.06 1015.22 1015.34 1015.46 1015.58 1015.66 1015.70 1015.74 1015.78 1015.90 1015.94 1016.02 1016.10 1016.18 1016.18 1016.26 1016.26 1016.22 1016.22 1016.18 1016.18 1016.22 1016.30 1016.38 1016.46 1016.62 1016.74 1016.74 1016.66 1016.62 1016.62 1016.70 1016.90 1017.06 1017.18 1017.18 1017.18 1017.34 1017.54 1017.74 1017.98 1018.18 1018.50 1018.82 1019.14 1019.46 1019.74 1019.94 1020.10 1020.30 1020.54 1020.74 1020.90 1021.06 1021.22 1021.34 1021.42 1021.50 1021.62 1021.70 1021.78 1021.90 1021.98
1014.22 1014.34 1014.46 1014.62 1014.74 1014.86 1015.02 1015.18 1015.34 1015.42 1015.50 1015.62 1015.66 1015.74 1015.78 1015.86 1015.94 1016.02 1016.06 1016.06 1016.18 1016.22 1016.26 1016.26 1016.26 1016.18 1016.18 1016.22 1016.34 1016.42 1016.46 1016.58 1016.74 1016.74 1016.62 1016.58 1016.58 1016.66 1016.86 1017.06 1017.18 1017.22 1017.26 1017.34 1017.54 1017.74 1018.02 1018.26 1018.54 1018.86 1019.18 1019.46 1019.74 1019.94 1020.14 1020.38 1020.62 1020.82 1021.02 1021.18 1021.34 1021.46 1021.58 1021.62 1021.70 1021.78 1021.90 1021.94 1021.98
1014.14 1014.26 1014.38 1014.50 1014.66 1014.82 1014.98 1015.14 1015.26 1015.38 1015.46 1015.58 1015.66 1015.74 1015.82 1015.86 1015.90 1015.98 1016.02 1016.02 1016.14 1016.22 1016.26 1016.30 1016.26 1016.22 1016.22 1016.26 1016.34 1016.46 1016.50 1016.58 1016.70 1016.70 1016.62 1016.62 1016.62 1016.66 1016.82 1017.02 1017.18 1017.26 1017.34 1017.38 1017.54 1017.74 1018.02 1018.34 1018.62 1018.86 1019.14 1019.46 1019.70 1019.90 1020.10 1020.38 1020.62 1020.90 1021.06 1021.26 1021.46 1021.62 1021.74 1021.78 1021.86 1021.90 1021.98 1022.02 1021.98
1014.02 1014.18 1014.34 1014.46 1014.62 1014.78 1014.94 1015.14 1015.26 1015.34 1015.42 1015.54 1015.62 1015.70 1015.74 1015.82 1015.90 1015.90 1015.98 1016.02 1016.14 1016.18 1016.22 1016.30 1016.30 1016.26 1016.22 1016.26 1016.34 1016.46 1016.50 1016.58 1016.66 1016.70 1016.62 1016.62 1016.62 1016.74 1016.86 1017.06 1017.18 1017.30 1017.34 1017.46 1017.58 1017.74 1018.02 1018.34 1018.62 1018.86 1019.14 1019.46 1019.66 1019.86 1020.10 1020.34 1020.62 1020.90 1021.14 1021.34 1021.50 1021.66 1021.82 1021.94 1021.98 1022.02 1022.06 1022.10 1022.06
1013.98 1014.10 1014.26 1014.42 1014.62 1014.74 1014.90 1015.10 1015.22 1015.34 1015.42 1015.50 1015.62 1015.66 1015.70 1015.74 1015.86 1015.90 1015.94 1016.02 1016.06 1016.18 1016.26 1016.30 1016.34 1016.30 1016.26 1016.30 1016.34 1016.46 1016.50 1016.62 1016.66 1016.70 1016.70 1016.70 1016.78 1016.90 1017.02 1017.10 1017.22 1017.34 1017.42 1017.50 1017.62 1017.82 1018.02 1018.34 1018.58 1018.86 1019.14 1019.42 1019.66 1019.86 1020.06 1020.34 1020.62 1020.90 1021.18 1021.34 1021.46 1021.66 1021.86 1022.02 1022.10 1022.14 1022.18 1022.22 1022.26
Wind_Speed
7 6 5 5 5 5 5 4 5 5 4 4 4 4 4 4 5 4 3 3 3 3 3 3 3 3 3 4 5 6 6 6 6 6 7 8 7 7 7 7 7 7 7 8 8 7 6 6 5 4 4 4 4 4 4 4 5 5 5 5 5 6 6 7 7 7 8 7 6
7 7 6 6 5 5 4 4 5 5 4 4 4 4 3 3 4 4 4 3 2 2 3 3 3 4 4 4 5 6 6 6 6 7 7 8 8 8 7 6 6 7 7 8 8 7 6 6 5 5 4 4 4 4 4 4 5 6 6 6 6 6 6 7 7 8 8 8 7
7 7 6 6 5 5 5 4 5 5 5 4 4 4 3 3 4 4 4 3 2 3 3 4 4 4 4 4 5 5 6 6 7 7 7 7 8 8 7 6 7 7 8 8 7 6 6 6 5 5 4 4 5 5 5 5 5 6 6 7 5 5 5 6 7 7 7 6 7
7 7 6 6 7 6 6 5 6 6 6 5 5 4 4 3 4 3 3 3 3 3 3 4 4 4 4 4 5 5 6 6 7 7 7 7 8 8 7 7 7 8 8 8 7 7 6 6 5 4 5 5 6 5 5 5 5 5 5 5 5 5 5 5 6 6 6 6 7
7 6 6 6 7 7 6 6 7 7 6 5 5 4 4 3 4 4 3 3 3 4 4 5 5 4 4 5 6 6 6 7 7 7 7 8 8 8 8 7 8 8 8 7 7 7 7 6 5 4 4 5 5 5 5 5 5 5 4 4 4 4 5 5 5 5 5 6 6
6 6 6 6 7 6 6 5 7 7 6 5 6 5 5 4 5 5 4 4 4 4 5 6 5 5 5 5 6 7 6 6 6 7 7 8 8 9 9 9 8 8 8 8 7 7 7 6 5 4 4 5 4 4 5 5 5 5 4 4 4 4 4 5 5 5 6 6 7
6 6 6 6 7 6 6 5 6 6 6 6 7 7 6 6 6 6 6 4 4 4 5 5 5 5 5 6 6 7 6 6 6 6 7 8 9 9 10 9 9 9 8 8 8 7 6 5 5 5 5 5 4 5 5 5 5 5 4 4 4 4 4 5 5 5 7 8 9
5 6 6 6 7 7 7 7 7 6 6 6 7 7 7 7 8 8 7 5 4 4 4 4 5 5 5 6 7 7 7 6 6 6 6 7 9 10 10 10 9 9 9 8 8 7 6 5 4 4 5 5 4 5 5 5 5 5 5 5 4 4 4 5 5 6 7 9 9
4 5 5 6 6 6 6 7 7 7 7 7 7 7 8 8 9 8 7 5 5 4 5 4 5 5 6 6 7 7 7 6 6 6 6 6 8 9 10 9 9 9 8 8 7 7 6 4 4 4 4 4 5 5 5 5 6 6 5 5 4 4 4 5 5 6 8 9 9
5 5 5 5 5 6 6 6 6 7 7 7 7 7 8 8 8 8 7 5 5 5 5 5 6 6 6 6 7 7 7 6 6 6 6 6 7 8 9 8 9 8 8 7 7 6 6 4 4 4 4 5 5 6 6 6 6 6 5 4 5 5 6 6 6 7 8 8 9
5 5 5 5 5 6 6 6 6 6 6 7 7 7 8 8 8 7 6 5 5 5 6 6 6 6 6 6 6 7 6 6 5 5 6 6 6 7 7 8 8 8 8 7 6 5 5 4 5 6 6 5 5 6 6 6 6 6 6 5 5 6 7 6 7 7 7 8 9
5 5 4 4 5 5 5 5 5 5 6 7 7 7 7 7 8 8 7 6 5 6 7 7 7 6 6 5 6 6 6 5 5 5 5 6 6 6 7 7 8 8 8 7 6 5 4 5 6 7 7 6 6 6 6 6 6 6 6 6 6 7 7 7 7 6 6 6 8
5 4 4 4 4 5 5 5 4 5 5 6 7 7 7 7 8 8 8 7 5 6 7 7 7 6 6 5 5 5 5 5 5 5 5 6 6 6 6 7 8 8 8 7 5 5 5 5 7 8 8 7 6 6 6 7 7 7 7 7 7 7 8 8 7 6 6 6 7
4 4 4 4 4 4 4 4 4 4 5 6 6 6 6 6 7 8 8 7 5 5 6 7 7 6 6 6 5 5 5 5 5 6 6 6 6 6 6 7 8 8 7 6 5 5 6 6 7 8 8 8 7 7 7 7 7 7 7 8 8 8 8 8 7 7 7 7 7
4 4 4 4 4 4 4 4 3 3 4 5 5 5 6 6 7 8 8 7 5 5 6 7 6 6 6 6 6 5 5 5 6 6 6 6 6 6 6 7 8 7 6 5 5 5 6 7 8 8 9 9 8 8 8 8 7 7 7 8 8 8 8 8 7 7 7 8 7
4 3 3 3 4 4 3 3 3 3 3 3 4 4 5 6 6 7 8 7 6 5 6 7 7 6 6 6 6 6 6 6 6 6 6 6 6 7 7 7 7 7 6 6 5 5 6 7 8 8 9 9 9 9 9 8 8 7 7 7 8 8 8 8 8 8 8 8 7
4 3 3 3 4 4 3 3 2 2 2 3 3 4 5 5 6 7 7 8 6 6 6 8 7 6 6 6 6 5 5 6 6 6 6 6 7 7 7 7 7 7 6 6 6 7 7 7 7 8 9 9 9 9 9 9 8 8 7 7 7 7 8 8 8 8 8 8 8
4 4 3 3 3 3 3 3 3 2 3 3 3 3 4 5 6 6 7 7 7 7 8 8 7 7 6 6 5 5 5 6 6 6 6 6 7 7 7 7 7 6 6 6 7 8 8 8 8 8 8 9 9 9 9 9 8 8 7 7 7 7 7 8 8 8 8 8 8
4 4 4 3 3 3 3 3 3 3 3 3 3 3 4 5 6 6 6 7 8 8 8 8 8 7 6 6 5 5 5 5 6 6 6 6 7 7 7 7 6 6 6 6 7 8 9 9 8 8 8 8 8 8 8 8 8 8 7 7 7 7 7 7 7 7 8 8 8
5 5 4 4 4 3 3 3 3 3 3 3 3 3 3 4 5 6 6 7 8 8 8 8 8 7 6 6 6 6 5 5 6 7 6 6 7 7 7 6 6 6 6 7 8 8 9 9 9 9 8 8 8 8 8 8 8 7 7 7 7 7 7 7 7 7 8 8 8
5 5 5 4 4 3 3 3 3 3 3 3 3 3 3 4 4 5 6 7 8 9 8 7 7 7 7 6 6 6 5 5 6 6 6 6 7 7 7 6 6 6 6 7 8 9 9 9 9 9 9 9 9 9 8 8 8 7 7 6 6 7 7 7 8 8 8 8 8
5 5 5 5 4 4 3 3 3 3 3 3 3 3 3 3 4 4 5 7 9 9 8 7 7 7 7 7 6 6 6 5 5 5 5 5 6 7 7 6 6 6 6 7 8 9 9 10 9 9 9 9 9 9 9 8 8 8 7 6 6 6 6 7 7 8 8 8 8
4 4 4 5 5 4 4 3 3 3 3 3 3 3 3 3 3 4 5 7 8 9 9 7 7 7 7 6 6 6 6 5 5 4 4 5 6 6 6 6 6 7 7 7 8 8 9 9 9 9 9 9 9 9 9 9 8 8 7 7 7 6 6 6 7 7 7 7 7
4 4 4 4 4 4 4 4 3 3 3 3 3 3 4 4 4 4 5 6 8 9 9 7 7 7 7 6 6 6 6 6 5 4 4 4 5 6 6 5 6 6 6 6 8 9 9 8 8 8 8 9 9 8 8 8 8 8 8 8 7 6 6 6 6 6 7 7 6
4 4 4 4 4 4 4 4 4 4 4 3 3 4 4 4 4 4 5 6 7 8 8 8 8 8 7 6 6 6 6 6 5 4 4 4 4 5 5 5 5 5 5 6 10 13 13 11 9 8 8 8 8 8 7 8 8 8 8 8 8 7 6 5 5 6 6 6 6
4 4 4 4 4 4 4 5 5 4 4 3 3 4 4 4 4 4 4 5 6 7 7 7 8 8 8 7 6 6 6 5 5 5 5 4 4 4 4 4 4 4 5 8 13 15 16 15 13 11 9 7 8 7 7 6 7 8 8 9 9 8 8 6 6 5 5 6 6
4 4 4 4 4 4 4 4 4 4 4 3 4 4 4 4 4 4 4 5 5 6 6 6 7 8 9 8 8 8 7 5 4 4 5 5 5 4 4 4 4 4 5 10 14 16 17 17 16 13 11 8 8 8 7 7 7 7 8 8 8 9 9 8 7 7 6 5 5
5 5 5 5 5 5 4 4 4 4 4 4 4 4 4 4 4 4 4 4 5 5 5 5 6 6 7 7 8 9 8 6 5 4 4 4 4 4 4 4 4 4 7 12 15 17 17 18 17 16 13 10 8 7 8 7 7 7 7 8 8 8 9 9 8 7 7 6 5
6 5 5 6 6 6 5 4 4 5 5 4 4 4 4 4 4 4 4 4 5 5 5 5 5 5 5 6 7 8 8 8 6 4 4 4 4 4 4 4 4 6 9 13 15 17 18 18 18 17 15 12 8 7 7 7 7 7 7 7 7 8 8 8 7 7 7 7 6
6 6 6 6 6 6 6 5 5 5 5 4 4 4 4 4 4 5 5 5 4 4 4 5 5 5 6 6 7 7 7 7 6 5 4 4 4 4 4 5 5 6 9 14 16 17 18 18 18 18 17 15 10 7 6 6 7 7 7 7 7 8 8 8 8 8 8 7 6
6 6 6 7 7 6 6 6 5 5 5 5 5 4 4 5 5 5 5 4 4 4 4 5 6 6 6 6 6 6 6 6 5 5 5 5 5 5 4 5 5 6 9 14 16 17 18 18 18 18 17 16 11 8 6 6 7 7 7 7 8 9 9 8 8 9 9 8 7
7 7 6 7 7 7 6 6 5 5 5 5 6 5 5 5 4 4 4 4 4 4 4 5 6 7 7 6 6 6 6 6 5 5 6 7 6 5 5 5 6 7 10 15 16 18 18 19 19 18 18 16 11 8 6 6 6 7 7 8 9 9 9 9 8 9 10 10 9
7 7 6 6 6 7 6 6 6 6 6 6 6 6 6 5 4 4 3 4 4 4 4 5 6 7 7 7 7 7 6 6 5 6 6 8 7 6 5 5 5 7 11 16 17 18 19 19 19 19 18 16 11 8 7 6 6 5 6 6 7 9 9 9 9 9 10 10 9
8 7 7 6 6 6 6 6 6 6 6 7 7 6 6 5 4 4 4 4 4 4 4 4 5 6 6 6 7 7 6 5 5 5 6 7 8 7 6 5 5 8 12 17 18 19 19 20 19 19 17 15 10 7 7 7 6 6 6 6 6 7 8 9 9 9 9 9 9
8 8 7 7 6 6 6 6 6 7 7 7 7 7 6 5 5 5 5 4 4 4 3 4 4 4 5 5 5 6 6 5 5 5 6 7 8 8 7 6 6 9 14 18 19 19 20 20 19 18 16 13 8 7 7 7 7 7 7 7 6 6 7 7 8 8 9 9 9
8 8 8 7 6 6 6 6 6 7 7 7 7 7 7 5 5 4 4 5 5 4 4 4 4 4 5 5 5 5 5 5 5 5 6 7 8 8 8 7 7 11 16 19 19 20 20 20 19 18 15 11 7 6 6 7 7 7 7 7 7 6 7 7 7 7 7 8 8
8 8 8 7 7 7 6 6 6 7 7 8 8 7 7 6 5 4 4 5 4 4 5 4 5 5 5 5 5 4 4 4 4 5 6 7 8 9 9 8 8 11 16 19 20 20 20 20 19 17 14 9 7 6 6 6 6 6 6 7 6 6 6 6 6 7 7 7 8
8 8 8 8 7 7 7 7 7 7 7 7 7 7 6 6 5 5 4 5 4 5 5 5 5 5 5 6 5 4 4 4 4 5 6 7 8 9 9 9 8 10 14 18 20 20 20 20 19 17 14 9 7 7 6 6 5 5 6 6 5 5 5 4 5 6 7 8 10
8 8 8 8 7 7 7 7 7 7 7 7 7 6 6 6 5 5 5 5 4 5 5 5 5 5 5 6 5 5 4 4 4 5 6 6 7 9 10 9 9 10 12 17 19 20 20 20 19 17 14 10 8 7 6 6 6 6 6 5 5 4 4 3 4 4 6 8 13
8 8 8 8 7 7 7 7 7 7 7 7 7 7 7 6 6 5 5 5 4 4 5 5 5 5 6 7 6 5 5 4 4 5 5 6 7 9 10 9 9 10 12 16 18 20 20 20 19 18 15 10 8 7 6 6 7 6 6 5 5 4 4 3 3 4 5 6 11
8 8 8 8 7 7 7 8 7 7 6 6 7 7 6 6 6 5 5 5 5 5 5 5 5 5 6 7 6 6 5 5 5 5 5 6 6 8 9 9 9 10 12 15 17 19 20 20 20 18 15 10 8 7 6 7 7 7 7 6 5 5 4 3 3 3 4 5 6
Wind_Direction
152 157 162 165 164 159 155 154 156 159 163 166 168 169 168 159 156 159 163 164 151 150 155 161 155 149 148 154 153 149 146 145 145 145 143 141 142 142 144 145 145 144 142 141 140 138 136 135 134 132 131 131 130 130 132 137 141 142 139 135 132 130 129 127 124 121 118 115 114
149 153 157 162 161 155 149 150 153 158 162 167 165 164 161 154 152 155 159 156 145 146 151 153 150 152 158 164 155 149 146 146 147 146 143 141 142 144 145 144 141 137 135 135 136 135 135 135 134 132 130 128 128 130 134 143 144 142 139 136 134 132 129 126 123 120 116 113 113
146 148 152 156 156 154 152 155 157 159 161 162 160 159 158 149 148 152 155 150 145 148 152 151 151 158 165 169 156 149 146 147 148 147 145 142 144 145 145 141 135 132 133 134 136 137 137 138 137 135 133 132 132 133 138 145 145 142 139 138 136 133 130 126 124 121 117 113 114
144 146 150 154 157 159 160 161 160 160 160 158 156 156 156 149 145 147 146 141 151 157 157 149 150 160 170 169 154 147 145 147 148 148 147 145 146 147 144 138 135 136 137 138 138 138 140 141 138 136 135 134 136 138 142 146 146 143 140 139 136 132 130 127 125 122 119 116 116
145 149 152 156 159 160 160 158 158 158 158 156 155 156 157 151 145 142 142 150 164 163 155 143 148 161 172 166 151 145 145 149 152 151 150 149 148 147 145 142 142 143 143 142 141 142 142 143 138 135 135 137 139 141 143 144 144 142 140 137 133 131 128 125 124 123 121 121 120
146 148 151 154 156 155 153 152 154 156 156 155 156 157 159 157 151 148 152 163 167 156 144 139 149 162 169 161 151 148 149 155 156 155 152 150 149 149 149 149 150 149 148 146 145 145 145 144 139 137 137 138 136 137 140 142 143 141 137 133 132 128 125 124 124 123 123 124 123
141 144 147 149 150 149 149 150 153 155 155 155 157 161 163 161 154 151 152 159 160 150 143 142 155 164 165 159 152 152 154 159 158 156 153 150 150 152 154 155 155 154 152 150 149 149 148 144 140 141 142 140 137 139 142 145 143 139 135 132 130 127 125 125 125 125 126 127 127
132 137 140 142 144 145 146 150 153 155 156 159 161 163 162 159 153 149 149 154 157 152 147 149 159 162 161 157 154 155 157 160 160 158 153 149 150 152 155 157 156 156 155 153 153 152 150 143 141 142 142 141 139 143 147 147 142 137 134 133 131 127 126 127 127 128 130 131 131
122 126 129 132 138 141 145 149 153 156 158 161 161 161 160 157 153 149 149 156 156 152 149 152 157 157 157 156 156 157 159 162 160 158 152 148 148 151 154 156 157 157 157 155 154 153 148 141 140 140 141 141 143 148 150 148 142 138 137 135 132 129 126 125 129 132 134 136 137
122 121 123 127 134 138 142 146 151 153 155 158 158 159 158 157 155 152 151 154 152 150 151 154 155 156 157 159 158 159 160 162 159 156 153 150 149 150 153 156 158 158 157 157 156 152 146 139 138 138 138 139 145 149 152 150 145 143 144 143 137 132 130 129 133 137 140 141 142
122 124 127 131 135 137 139 142 147 151 154 156 158 158 158 158 157 153 150 149 152 153 154 154 154 156 159 162 161 161 161 160 157 154 153 153 151 152 153 156 158 158 158 158 156 152 146 141 138 138 138 140 146 151 154 152 149 148 148 146 140 136 136 136 139 141 143 145 144
124 127 129 132 133 134 136 139 145 150 154 158 159 159 158 159 158 153 150 153 159 157 153 151 154 158 162 165 164 163 160 156 152 151 153 155 154 155 156 157 157 157 157 158 157 152 146 143 141 140 141 144 151 156 158 156 153 151 150 148 144 141 141 142 143 144 144 143 144
126 128 130 132 131 132 134 139 145 151 157 160 161 160 158 160 160 155 151 157 164 158 152 151 155 160 165 169 167 165 160 151 149 151 154 157 158 159 159 159 157 157 157 158 156 151 146 143 143 145 147 152 158 162 162 159 157 156 155 152 149 146 144 144 143 141 139 139 142
125 130 133 136 135 136 137 141 147 154 159 163 163 160 159 161 162 157 153 158 161 156 151 152 158 165 171 172 171 166 158 148 149 152 156 160 161 163 164 162 158 157 156 156 153 149 146 145 148 150 152 157 161 163 164 163 161 160 159 157 154 151 147 145 142 139 137 138 141
126 131 137 140 141 142 143 146 151 158 162 165 162 160 160 163 163 157 153 155 157 155 153 154 162 169 174 173 171 164 154 146 150 154 159 163 164 167 167 164 160 157 154 152 150 147 146 147 150 153 156 159 161 163 164 165 164 164 164 162 158 153 149 145 142 141 140 141 142
131 136 142 145 147 147 148 150 155 161 165 165 162 161 162 163 161 156 153 152 154 157 160 160 165 170 173 173 167 159 151 147 151 156 161 165 167 169 169 165 162 158 154 150 149 148 148 150 152 155 157 159 161 163 164 165 165 165 165 163 158 153 149 147 145 144 144 144 145
140 145 150 152 153 152 153 154 158 165 170 169 166 166 165 161 158 155 153 151 155 161 166 165 165 167 169 169 163 155 149 148 153 159 164 167 169 170 170 168 165 160 155 152 150 148 149 150 152 154 156 158 160 162 163 163 164 165 165 162 157 153 150 148 147 146 146 146 148
150 155 158 159 160 159 158 156 160 168 175 177 178 175 167 158 155 155 154 151 155 162 166 165 163 163 163 163 158 155 152 151 155 160 165 169 169 170 171 170 167 162 157 155 153 151 150 150 151 153 155 157 159 160 161 161 162 162 162 159 155 151 149 148 147 147 147 148 150
159 162 165 166 166 164 162 161 163 170 178 187 188 179 166 154 153 154 154 150 154 160 164 162 159 158 159 158 157 156 155 151 154 160 165 169 169 169 170 171 168 163 160 159 155 152 151 150 151 152 154 155 157 158 159 159 160 160 159 156 153 150 148 146 146 146 146 147 147
166 167 168 168 167 166 166 166 167 171 180 192 191 177 161 151 151 153 155 152 152 156 159 158 155 155 156 156 156 157 156 152 153 157 164 169 168 169 171 173 168 164 161 159 155 152 150 150 151 152 153 154 155 155 156 156 156 156 156 154 152 150 147 145 143 142 142 143 144
171 170 168 165 164 166 167 168 168 172 180 193 187 173 159 151 153 155 156 151 149 151 154 155 153 153 154 156 158 159 156 148 148 154 161 167 168 170 172 173 168 165 161 159 155 152 151 151 152 154 154 154 155 156 156 156 155 155 154 153 152 149 146 143 140 139 139 141 143
175 171 166 162 161 161 162 165 166 172 180 192 184 172 163 158 159 159 157 152 149 149 151 152 151 151 153 157 159 158 152 141 139 146 157 166 169 171 171 170 165 162 159 157 154 153 152 152 153 154 155 155 156 157 157 157 155 154 153 152 150 148 145 141 139 139 139 141 144
175 170 166 161 157 155 154 157 163 172 182 190 183 174 168 167 167 164 160 156 153 151 151 150 148 148 150 156 159 155 146 133 129 136 151 165 168 170 170 167 164 161 159 157 154 152 152 152 154 155 156 156 158 159 159 158 156 154 152 150 149 147 144 141 138 137 138 140 141
170 170 168 163 155 152 151 153 161 172 182 190 184 178 173 174 174 169 164 160 158 155 153 150 146 145 146 154 158 153 143 134 129 133 146 162 166 167 168 167 165 162 160 158 158 157 156 155 156 157 158 158 160 161 162 160 158 155 153 151 150 149 146 142 138 137 137 137 138
168 169 168 162 155 152 152 155 164 174 184 191 187 182 178 177 176 172 167 163 160 158 154 150 145 143 144 153 155 150 142 137 136 137 145 157 161 164 166 168 167 163 160 160 163 163 162 160 161 161 160 160 160 161 161 161 159 157 155 154 153 151 148 145 141 139 138 139 141
171 170 169 163 158 156 158 161 167 173 180 189 190 188 183 178 175 172 168 164 161 158 154 152 148 147 148 153 154 150 144 141 139 139 142 151 157 161 165 171 169 165 163 167 168 167 166 165 164 162 160 158 159 159 160 161 160 158 156 156 155 154 152 151 149 146 144 142 144
179 177 172 165 163 164 167 168 168 170 175 186 194 192 187 178 175 172 168 163 158 155 154 155 153 151 152 155 155 154 152 150 142 137 138 144 151 159 166 171 169 168 170 174 172 171 170 169 167 164 160 157 158 160 161 161 159 157 156 157 157 157 156 156 155 152 150 147 148
187 183 176 168 169 171 174 173 171 172 177 185 194 194 188 178 175 172 169 163 156 154 155 158 158 156 155 157 159 158 157 155 147 135 130 134 145 155 164 170 172 176 179 179 176 175 173 172 169 166 162 158 158 158 158 157 157 157 157 158 159 159 159 158 157 154 152 150 152
188 185 179 175 175 175 176 177 178 178 179 183 191 194 190 181 178 175 171 165 160 159 160 162 160 158 157 161 163 161 158 155 148 137 127 128 141 155 164 169 173 181 185 183 180 178 176 174 171 168 165 161 159 158 158 158 158 158 158 159 161 161 161 160 157 154 152 152 152
187 185 183 181 179 179 179 182 181 179 177 180 188 193 193 186 182 178 175 172 170 168 165 161 158 158 160 163 164 163 160 157 148 139 135 139 151 163 170 170 174 184 188 187 182 180 177 175 172 169 165 162 157 155 157 158 158 157 158 159 159 160 159 158 155 154 152 151 150
186 187 186 185 183 183 184 184 181 179 176 177 184 191 194 192 188 185 182 178 177 171 165 158 156 156 158 161 163 164 163 157 147 142 144 152 162 168 172 171 175 185 190 188 183 180 176 173 170 167 164 160 157 155 156 157 156 156 156 157 158 158 158 156 156 155 153 150 147
183 187 188 186 186 186 186 185 182 180 179 180 184 190 194 195 193 190 186 181 176 171 165 160 158 156 156 159 163 164 163 159 155 155 156 159 163 167 170 172 176 185 189 187 181 177 174 170 167 164 161 157 152 148 147 149 149 149 150 152 155 157 158 158 157 155 153 151 149
181 185 188 188 188 186 185 183 183 183 184 185 189 191 193 194 193 193 191 187 180 175 171 166 162 159 159 161 163 164 165 166 168 168 166 162 161 162 165 170 177 185 186 182 177 173 170 166 163 160 156 152 144 139 138 139 138 138 141 146 151 154 155 155 155 155 154 152 149
179 183 187 189 188 186 183 182 183 185 187 191 194 194 193 191 190 192 195 194 188 182 177 172 166 163 162 162 162 163 166 169 175 175 169 160 157 157 161 169 177 182 181 176 172 168 165 162 159 155 150 143 136 131 130 130 128 128 130 135 141 146 149 151 152 152 152 149 146
178 181 185 189 187 184 181 180 182 185 188 193 197 198 196 192 191 192 195 195 191 187 182 178 172 166 162 161 162 161 162 164 175 179 172 160 154 154 158 165 173 177 175 170 167 164 162 159 154 149 143 136 130 127 126 125 125 125 127 129 131 135 139 143 146 147 146 143 139
177 180 184 186 185 182 180 179 181 185 189 195 199 199 199 197 194 193 194 194 192 189 186 182 177 171 166 164 165 163 161 159 174 179 173 160 153 152 155 161 168 171 169 166 163 161 159 155 150 145 138 131 128 126 126 126 125 125 125 126 128 131 134 138 140 139 138 136 136
178 180 182 183 182 181 179 179 181 186 190 195 198 199 199 198 197 195 193 192 192 192 191 186 183 179 175 170 169 164 158 153 169 176 172 162 154 151 152 157 162 165 165 162 161 159 156 153 148 142 137 130 129 128 127 125 124 123 123 123 125 128 130 132 132 132 133 134 136
179 180 181 181 181 180 180 181 184 188 192 195 197 198 198 197 197 197 195 191 191 193 194 192 190 185 179 172 167 159 151 148 166 173 171 162 154 151 150 153 159 162 162 160 159 158 155 152 148 143 139 134 135 134 131 128 126 126 125 124 123 121 121 121 124 128 132 138 141
178 179 179 179 180 181 181 184 187 190 192 193 193 194 195 196 198 198 197 193 190 193 195 197 195 189 180 170 165 158 151 149 165 171 170 160 154 151 151 152 158 160 160 159 158 157 155 152 149 146 143 139 140 138 136 132 131 130 128 125 123 118 114 111 118 127 136 142 146
177 177 177 178 180 182 184 188 191 192 192 190 190 191 193 195 197 199 198 194 190 192 196 199 198 192 182 172 167 160 155 152 162 168 166 158 155 155 155 154 158 159 159 159 158 157 155 154 151 149 146 141 141 140 138 136 135 135 134 134 131 126 119 112 117 128 138 143 148
175 176 177 177 179 182 186 192 194 194 193 190 190 190 190 191 194 197 197 193 190 191 195 199 199 194 186 177 170 165 159 155 159 162 161 157 159 163 163 158 159 160 160 160 158 157 156 155 154 152 149 144 143 142 141 140 140 142 144 145 142 137 132 127 126 131 138 143 147